DW8097 Weather Reports


time (UTC)temp
F
wind
direction
speed
knots
gust
knots
rain 1hr
in
rain 24hr
in
rain mn
in
humidity
%
barometer
mb
20240418173005 50 252 4.3 10.4 0.00 0.03 0.00 53 1016.6
20240418171505 50 275 5.2 13.0 0.00 0.03 0.00 51 1016.4
20240418170003 51 322 6.1 8.7 0.00 0.03 0.00 53 1016.5
20240418164501 50 247 6.1 10.4 0.00 0.03 0.00 55 1016.8
20240418163108 51 290 3.5 7.8 0.00 0.03 0.00 61 1016.8
20240418161559 50 279 2.6 7.8 0.00 0.03 0.00 61 1016.9
20240418160057 49 287 3.5 7.0 0.00 0.03 0.00 63 1016.9
20240418154634 50 285 2.6 9.6 0.00 0.03 0.00 65 1016.9
20240418153055 49 314 3.5 9.6 0.00 0.03 0.00 64 1016.5
20240418151550 49 298 2.6 7.0 0.00 0.03 0.00 72 1016.6
20240418150046 49 320 3.5 7.8 0.00 0.03 0.00 76 1016.4
20240418144545 48 277 3.5 7.8 0.00 0.03 0.00 78 1016.3
20240418143042 49 269 3.5 6.1 0.00 0.03 0.00 81 1016.2
20240418141539 49 263 0.9 6.1 0.00 0.03 0.00 83 1016.0
20240418140042 48 271 2.6 5.2 0.00 0.03 0.03 85 1016.0
20240418134542 48 277 2.6 6.1 0.00 0.03 0.03 86 1016.0
20240418133046 48 239 2.6 6.1 0.00 0.03 0.03 87 1015.8
20240418131538 48 254 2.6 5.2 0.00 0.03 0.03 87 1015.8
20240418130038 47 261 2.6 8.7 0.00 0.03 0.03 87 1016.2
20240418124540 47 273 4.3 8.7 0.01 0.03 0.03 87 1016.6
20240418123033 47 259 5.2 10.4 0.01 0.03 0.03 87 1015.8
20240418121533 47 257 3.5 9.6 0.01 0.03 0.03 87 1015.3
20240418120043 47 211 5.2 10.4 0.01 0.04 0.03 86 1015.4
20240418114532 47 230 3.5 10.4 0.01 0.03 0.02 85 1016.0
20240418113036 47 218 3.5 8.7 0.02 0.03 0.02 85 1015.8
20240418111538 46 277 4.3 9.6 0.02 0.03 0.02 85 1016.3
20240418110029 46 264 4.3 9.6 0.02 0.04 0.02 85 1016.2
20240418104531 47 297 2.6 7.0 0.01 0.03 0.01 84 1016.0
20240418103040 48 263 0.9 3.5 0.00 0.02 0.00 81 1015.5
20240418101524 47 173 1.7 4.3 0.00 0.02 0.00 80 1015.0
20240418100029 48 204 0.0 1.7 0.00 0.06 0.00 79 1014.9
20240418094528 47 204 0.0 2.6 0.00 0.06 0.00 81 1014.9
20240418093041 47 204 0.9 2.6 0.00 0.06 0.00 80 1014.5
20240418091535 46 226 0.0 1.7 0.00 0.06 0.00 81 1014.2
20240418090026 46 234 0.0 0.9 0.00 0.10 0.00 80 1014.2
20240418084526 47 234 0.0 0.0 0.00 0.10 0.00 80 1014.3
20240418083026 46 234 0.0 1.7 0.00 0.10 0.00 80 1014.5
20240418081530 44 257 0.0 2.6 0.00 0.10 0.00 83 1014.5
20240418080024 45 275 0.0 0.9 0.00 0.11 0.00 80 1013.9
20240418074522 45 275 0.0 1.7 0.00 0.11 0.00 84 1013.6
20240418073022 45 297 0.9 2.6 0.00 0.11 0.00 81 1013.5
20240418071522 44 113 1.7 3.5 0.00 0.11 0.00 78 1013.9
20240418070026 45 257 0.0 0.9 0.00 0.11 0.00 80 1014.2
20240418064520 44 257 0.0 2.6 0.00 0.11 0.00 82 1013.9
20240418063019 43 87 1.7 2.6 0.00 0.11 0.00 81 1013.3
20240418061518 43 115 1.7 2.6 0.00 0.11 0.00 80 1013.6
20240418060020 45 154 0.0 1.7 0.00 0.11 0.00 79 1013.5
20240418054516 46 99 0.0 2.6 0.00 0.11 0.00 78 1013.7
20240418053014 44 117 0.9 2.6 0.00 0.11 0.00 79 1013.1
20240418051511 46 270 1.7 5.2 0.00 0.11 0.00 77 1013.0
20240418050011 46 252 0.9 5.2 0.00 0.23 0.00 77 1012.9
20240418044513 47 270 2.6 6.1 0.00 0.23 0.00 75 1013.2
20240418043009 48 306 1.7 6.1 0.00 0.23 0.00 73 1012.9
20240418041509 48 289 2.6 7.8 0.00 0.23 0.00 73 1013.1
20240418040009 49 279 2.6 6.1 0.00 0.31 0.00 72 1013.0
20240418034522 49 286 2.6 6.1 0.00 0.31 0.00 71 1013.1
20240418033008 50 288 2.6 6.1 0.00 0.31 0.00 69 1013.1
20240418031507 50 284 3.5 9.6 0.00 0.31 0.00 68 1013.2
20240418030005 51 285 2.6 6.1 0.00 0.31 0.00 67 1013.0
20240418024509 51 300 2.6 7.8 0.00 0.31 0.00 67 1013.0
20240418023006 51 318 3.5 7.0 0.00 0.31 0.00 67 1012.7
20240418021506 51 284 4.3 7.8 0.00 0.31 0.00 66 1012.3
20240418020007 52 331 3.5 7.8 0.00 0.31 0.00 63 1012.1
20240418014500 52 264 3.5 7.8 0.00 0.31 0.00 63 1011.6
20240418013059 52 323 3.5 7.8 0.00 0.31 0.00 62 1011.1
20240418011557 52 355 4.3 9.6 0.00 0.31 0.00 61 1010.7
20240418010054 52 332 3.5 10.4 0.00 0.31 0.00 61 1010.5
20240418004557 53 333 3.5 13.0 0.00 0.31 0.00 61 1010.3
20240418003055 54 307 5.2 10.4 0.00 0.31 0.00 60 1009.9
20240418001547 54 275 2.6 8.7 0.00 0.31 0.00 62 1009.6
20240418000045 54 311 5.2 11.3 0.00 0.32 0.00 62 1009.3
20240417234542 54 360 7.0 14.8 0.00 0.32 0.00 61 1009.1
20240417233056 55 355 6.1 13.9 0.00 0.32 0.00 60 1009.0
20240417231539 55 310 5.2 10.4 0.00 0.32 0.00 62 1008.9
20240417230037 53 266 3.5 9.6 0.00 0.43 0.00 67 1008.7
20240417224541 53 304 4.3 8.7 0.00 0.43 0.00 67 1008.6
20240417223038 53 315 4.3 13.9 0.00 0.43 0.00 67 1008.4
20240417221536 53 317 3.5 10.4 0.00 0.43 0.00 68 1008.0
20240417220030 53 336 6.1 11.3 0.00 0.66 0.00 68 1007.5
20240417214528 53 337 4.3 11.3 0.00 0.66 0.00 70 1007.3
20240417213030 53 355 3.5 9.6 0.00 0.66 0.00 69 1006.7
20240417211525 52 349 7.0 13.9 0.00 0.66 0.00 69 1006.5
20240417210023 53 355 6.1 11.3 0.00 0.78 0.00 68 1006.3
20240417204520 53 342 7.0 17.4 0.00 0.78 0.00 68 1006.2
20240417203024 53 322 6.1 15.6 0.00 0.78 0.00 70 1005.9
20240417201518 51 340 7.0 12.2 0.00 0.78 0.00 73 1006.0
20240417200026 51 286 5.2 14.8 0.00 0.82 0.00 72 1005.7
20240417194520 50 271 6.1 18.2 0.00 0.82 0.00 73 1005.7
20240417193021 50 314 6.1 15.6 0.00 0.82 0.00 75 1005.2
20240417191523 50 323 8.7 13.0 0.00 0.82 0.00 75 1004.8
20240417190020 50 258 7.0 13.0 0.00 0.84 0.00 75 1004.2
20240417184510 51 317 4.3 12.2 0.00 0.84 0.00 75 1004.0
20240417183009 50 259 4.3 14.8 0.00 0.84 0.00 75 1003.6
20240417181507 50 313 8.7 16.5 0.00 0.84 0.00 75 1003.3
20240417180012 51 329 7.8 17.4 0.00 0.84 0.00 74 1002.7
20240417174502 52 317 7.8 16.5 0.00 0.84 0.00 74 1002.4